Norway House Airport
CYNE : rendu visible

Aérodrome :











RETROUVEZ-NOUS SUR...

 
LOGIN :

S'inscrire | Disclaimer

   EN    FR    IT 

 









Légende :    VFR   VFR Marginal   IFR   IFR Intensif   IFR Très Intensif
Visi : 
Plafond : 
>= 8 km
>= 3000ft
5 à 8 km
1000 à 3000 ft
1500m à 5 km
500 à 1000 ft
800 à 1500m
200 à 500 ft
< 800m
< 200 ft
Symboles :   Orages  Brouillard  Fortes neiges  Fortes précipitations  Vent > 20 kt






- Altitude de l'aérodrome : 734 ft
- Code IATA : YNE


CYNE - Norway House

DERNIER METAR :
  • 061000Z AUTO 18003KT 9SM CLR 17/17 A2977 RMK SLP085 DENSITY ALT 1300FT

METARs EXPIRÉS :
  • 060900Z AUTO 21003KT 9SM CLR 18/17 A2977 RMK SLP086 DENSITY ALT 1300FT
  • 060800Z AUTO 22002KT 9SM CLR 18/17 A2977 RMK SLP086 DENSITY ALT 1300FT

TAF TAF CYNE
Valide du 06 à 07h jusqu'au 06 à 19h UTC


060638Z 0607/0619 22005KT P6SM SKC
BECMG 0616/0618 22012KT RMK FCST BASED ON AUTO OBS. NXT FCST BY 061300Z
FIR CZWG / Amérique du Nord



MET'MAP, la Météo Aéronautique d'un coup d'oeil ! - Copyright ORBIFLY Décembre 2007 - Disclaimer

ORBIFLY MET'MAP TEAM :

Programmation & Développement : Alexandra Zaïnal
Sur une idée originale de : Baudouin d'Aumeries
Assistance à la programmation : Marc-Olivier Méhu
Soutien technique & logistique : Manuel Goepfert

Contact : metmap@orbifly.com




SOURCES & CREDITS :

   NOAA       Earth
Advisory